Hourly Data Report for October 21, 2016

All times are specified in Local Standard Time (LST). Add 1 hour to adjust for Daylight Saving Time where and when it is observed.

CLYDE RIVER A
NUNAVUT

70°29'09.000" N
68°31'01.000" W
26.50 m
2400804
71090
YCY

Download Data

Hourly Data (October 2016)
Hourly Data Report for October 21, 2016
Temp Definition
°C
Dew Point Temp Definition
°C
Rel Hum Definition
%
Wind Dir Definition
10's deg

Wind Spd Definition
km/h
Visibility Definition
km
Stn Press Definition
kPa
Hmdx Definition


Wind Chill Definition


Weather Definition


TIME
00:00 Legend Double Dagger -5.3 -6.7 90 30 28 4.0 99.78   -13 Snow
01:00 Legend Double Dagger -5.4 -6.6 91 30 26 4.8 99.82   -13 Snow
02:00 Legend Double Dagger -3.8 -5.0 91 4 28 4.8 99.87   -11 Snow
03:00 Legend Double Dagger -3.3 -5.0 88 3 34 16.1 99.94   -11 Snow
04:00 Legend Double Dagger -3.6 -5.6 86 2 34 16.1 100.01   -12 LegendNANA
05:00 Legend Double Dagger -3.8 -5.3 89 2 35 4.8 100.09   -12 Snow
06:00 Legend Double Dagger -3.9 -5.6 88 1 43 4.0 100.17   -13 Snow
07:00 Legend Double Dagger -4.4 -6.1 88 36 39 4.0 100.27   -13 Snow
08:00 Legend Double Dagger -4.9 -5.9 93 35 52 0.8 100.32   -15 Moderate Snow
09:00 Legend Double Dagger -5.1 -6.6 89 34 46 1.6 100.39   -15 Snow
10:00 Legend Double Dagger -5.2 -7.0 87 34 46 4.8 100.47   -15 Snow
11:00 Legend Double Dagger -5.2 -7.2 86 34 39 6.4 100.53   -14 Snow
12:00 Legend Double Dagger -5.1 -7.8 82 34 39 14.5 100.58   -14 Snow
13:00 Legend Double Dagger -5.2 -6.6 90 34 46 6.4 100.62   -15 Snow
14:00 Legend Double Dagger -5.3 -7.0 88 33 45 4.0 100.68   -15 Snow
15:00 Legend Double Dagger -5.6 -6.7 92 32 45 4.8 100.75   -15 Snow
16:00 Legend Double Dagger -5.1 -6.7 89 33 45 2.4 100.79   -15 Snow
17:00 Legend Double Dagger -5.6 -6.7 92 32 52 2.0 100.83   -16 Snow
18:00 Legend Double Dagger -5.8 -6.9 92 31 54 1.6 100.86   -16 Snow
19:00 Legend Double Dagger -5.1 -6.4 91 32 48 3.2 100.89   -15 Snow
20:00 Legend Double Dagger -5.1 -7.5 83 34 43 4.8 100.95   -14 Snow
21:00 Legend Double Dagger -4.7 -5.5 95 33 45 1.6 100.99   -14 Snow
22:00 Legend Double Dagger -5.0 -6.3 91 33 41 1.6 101.06   -14 Snow
23:00 Legend Double Dagger -5.3 -6.3 93 32 52 1.2 101.11   -16 Snow

Notes on Data Quality.

Legend

  • E = Estimated
  • M = Missing
  • NA = Not Available
  • ‡ = Partner data that is not subject to review by the National Climate Archives
Date modified: